Powrót do katalogu

CZ-6A DEB

AktywnyPO
NORAD 60711·DEBRIS·🇨🇳 China

Wystrzelony Aug 6, 2024 z Taiyuan Satellite Launch Center

Loading…

Następne Przeloty (najbliższe 24 godziny)

TLE

ŚwieżeSource: Space-Track

Epoka: Sep 14, 2026, 10:14 UTC

1 60711U 24140DQ  26257.42665369  .00000809  00000-0  25026-3 0  9994
2 60711  88.8456 247.7932 0064649  56.8119 303.9259 14.39121996109702

Śledź CZ-6A DEB w czasie rzeczywistym z AllMySat

Download on the App Store